Other Public Products
Issued by NWS Charleston, SC

Current Version | Previous Version | Graphics & Text | Print | Product List | Glossary On
Versions: 1 2 3 4 5 6 7 8 9 10 11 12 13 14 15 16 17 18 19 20 21 22 23 24 25 26 27 28 29 30 31 32 33 34 35 36 37 38 39 40 41 42 43 44 45 46 47 48 49 50
478
FPUS82 KCHS 220127
OPUCHS

TEST...KCHS/KSAV Gateway Observations...TEST
National Weather Service Charleston SC
900 PM EDT SAT APR 21 2018

NOTE: "fair" indicates few or no clouds below 12,000 feet with no
significant weather and/or obstructions to visibility.

SCZ050-WAZ558-NCZ071-TXZ119-213-PAZ071-DCZ001-FLZ074-172-MI076-
NYZ176-178-MAZ016-IL014-TNZ027-NJZ106-GAZ044-MD014-220200-

...Gateway Observations for Charleston International...

CITY           SKY/WX    TMP DP  RH WIND       PRES   REMARKS
Chas Airport   FAIR      60  51  72 NE8       30.32R
Seattle        PTSUNNY   56  38  50 W6        30.40S
Charlotte      FAIR      66  32  28 SE10      30.31R
Dallas DFW     CLOUDY    62  61  96 NE6       29.91R FOG
Dallas Love    CLOUDY    63  62  97 CALM      29.93S
Philladelphia  MOCLDY    55  31  39 SW9       30.35R
Wash National  MOCLDY    58  26  29 SW3       30.37R
Baltimore      MOCLDY    52  31  44 CALM      30.36R
Miami          FAIR      78  71  79 NE12      30.09R
Detroit        CLOUDY    46  23  40 S6        30.41S
Newark         MOCLDY    58  30  34 NW12      30.31R
Laguardia      MOCLDY    58  20  22 NW14      30.30R
J F K          MOCLDY    45  40  82 CALM      30.32R
Boston Logan   FAIR      52  23  32 N7        30.26R
Ft. Lauderdale FAIR      78  73  84 E14       30.08S
Chicago O`Hare CLOUDY    48  17  29 E7        30.36S
Chicago Midway MOCLDY    47  17  30 E8        30.37S
Houston Bush   CLOUDY    71  68  90 SE12      29.89S
Houston Hobby  CLOUDY    72  69  90 SE8       29.88F
Nashville      MOCLDY    68  31  25 SE6       30.18R
Atlanta        MOCLDY    66  41  40 SE8       30.24S

$$

GAZ044-118-TXZ119-213-NCZ071-DCZ001-MDZ014-506-PAZ021-071-NJZ106-
NYZ176-178-MAZ106-OHZ011-021-055-MIZ076-KYZ091-ILZ014-INZ047-
MNZ060-ONZ431-220200-

...Gateway Observations for Savannah International...

CITY           SKY/WX    TMP DP  RH WIND       PRES   REMARKS
Savannah Arpt  CLOUDY    64  54  69 NE8       30.30R
Atlanta        MOCLDY    66  41  40 SE8       30.24S
Charlotte      FAIR      66  32  28 SE10      30.31R
Dallas DFW     CLOUDY    62  61  96 NE6       29.91R FOG
Houston Bush   CLOUDY    71  68  90 SE12      29.89S
Wash National  MOCLDY    58  26  29 SW3       30.37R
Wash Dulles    MOCLDY    51  29  42 NE6       30.36R
Baltimore      MOCLDY    52  31  44 CALM      30.36R
Philadelphia   MOCLDY    55  31  39 SW9       30.35R
Newark         MOCLDY    58  30  34 NW12      30.31R
Laguardia      MOCLDY    58  20  22 NW14      30.30R
J F K          MOCLDY    45  40  82 CALM      30.32R
Boston         FAIR      52  23  32 N7        30.26R
Pittsburg      MOCLDY    53  24  32 NW3       30.35R
Akron          CLOUDY    49  25  39 N7        30.37S
Cleveland      MOCLDY    41  31  67 N7        30.42F
Cincinnati     CLOUDY    55  22  27 NE15      30.30S
Columbus       FAIR      49  25  37 NE9       30.34R
Detroit        CLOUDY    46  23  40 S6        30.41S
Chicago O`Hare CLOUDY    48  17  29 E7        30.36S
Minneapolis    FAIR      56  25  30 SW7       30.33S
Indianapolis   CLOUDY    56  20  24 E10       30.31S
Toronto Canada PTCLDY    50  21  32 NW7       30.39R

$$




USA.gov is the U.S. government's official web portal to all federal, state and local government web resources and services.